Tracking 17631 objects as of 4-May-2016
HD Live streaming from Space Station
objects crossing your sky now

RUBIN 2

Track RUBIN 2 now!
10-day predictions
RUBIN 2 is classified as:


NORAD ID: 27605
Int'l Code: 2002-058A
Perigee: 653.0 km
Apogee: 653.0 km
Inclination: 64.6 °
Period: 97.6 minutes
Semi major axis: 7023 km
RCS: 0.234 m2 (medium)
Launch date: December 20, 2002
Source: Germany (GER)
Launch site: TYURATAM MISSILE AND SPACE COMPLEX (TTMTR)
Uplink (MHz): 435.275
Downlink (MHz): 145.825
Beacon (MHz): 145.825
Mode: U/1200 D/9600 MSK
Call sign:
Status: Inactive

Your satellite tracking list
Your tracking list is empty





NASA's NSSDC Master Catalog

Two Line Element Set (TLE):
1 27605U 02058A   16124.87384391  .00000154  00000-0  43076-4 0  9996
2 27605  64.5552 277.7168 0073156 226.1783 133.3257 14.74786396719116
Source of the keplerian elements: AFSPC

N2YO: 578